CW2057 Weather Reports


time (UTC)temp
C
wind
direction
speed
KPH
gust
KPH
rain 1hr
cm
rain 24hr
cm
rain mn
cm
humidity
%
barometer
mb
20260505102138 14 249 1.6 8.0 0.00 0.00 0.00 66 1012.1
20260505101627 14 295 3.2 8.0 0.00 0.00 0.00 67 1012.1
20260505101117 14 246 1.6 9.7 0.00 0.00 0.00 67 1012.0
20260505100625 14 299 3.2 9.7 0.00 0.00 0.00 67 1012.0
20260505100115 14 317 0.0 4.8 0.00 0.00 0.00 67 1011.6
20260505095622 14 322 1.6 8.0 0.00 0.00 0.00 66 1011.7
20260505095131 14 246 1.6 8.0 0.00 0.00 0.00 66 1011.6
20260505094619 14 245 0.0 4.8 0.00 0.00 0.00 66 1011.7
20260505094148 14 261 0.0 4.8 0.00 0.00 0.00 66 1011.7
20260505093616 14 236 1.6 6.4 0.00 0.00 0.00 66 1011.6
20260505093141 14 266 1.6 6.4 0.00 0.00 0.00 66 1011.6
20260505092630 14 242 1.6 4.8 0.00 0.00 0.00 66 1011.7
20260505092119 14 301 0.0 8.0 0.00 0.00 0.00 66 1011.6
20260505091629 14 286 1.6 8.0 0.00 0.00 0.00 66 1011.6
20260505091117 14 295 0.0 6.4 0.00 0.00 0.00 66 1011.6
20260505090646 14 273 1.6 6.4 0.00 0.00 0.00 66 1011.7
20260505090114 14 252 0.0 4.8 0.00 0.00 0.00 66 1011.7
20260505085622 14 230 1.6 4.8 0.00 0.00 0.00 66 1011.6
20260505085131 14 226 0.0 8.0 0.00 0.00 0.00 66 1011.7
20260505084620 15 244 0.0 8.0 0.00 0.00 0.00 65 1011.6
20260505084149 15 235 1.6 4.8 0.00 0.00 0.00 64 1011.6
20260505083616 15 297 0.0 4.8 0.00 0.00 0.00 64 1011.7
20260505083124 15 243 1.6 6.4 0.00 0.00 0.00 64 1011.7
20260505082614 15 273 3.2 6.4 0.00 0.00 0.00 64 1011.6
20260505082123 15 251 1.6 6.4 0.00 0.00 0.00 64 1011.6
20260505081653 15 290 1.6 9.7 0.00 0.00 0.00 64 1011.6
20260505081120 15 234 1.6 9.7 0.00 0.00 0.00 64 1011.6
20260505080642 15 253 4.8 8.0 0.00 0.00 0.00 64 1011.7
20260505080130 15 201 1.6 6.4 0.00 0.00 0.00 64 1011.6
20260505075617 15 253 1.6 6.4 0.00 0.00 0.00 65 1011.5
20260505075146 15 233 0.0 4.8 0.00 0.00 0.00 65 1011.6
20260505074615 15 210 1.6 4.8 0.00 0.00 0.00 65 1011.6
20260505074123 15 249 0.0 3.2 0.00 0.00 0.00 65 1011.5
20260505073632 15 280 1.6 3.2 0.00 0.00 0.00 66 1011.4
20260505073118 14 224 0.0 1.6 0.00 0.00 0.00 66 1011.3
20260505072626 14 330 0.0 1.6 0.00 0.00 0.00 66 1011.4
20260505072115 14 270 0.0 0.0 0.00 0.00 0.00 66 1011.4
20260505071623 15 270 0.0 0.0 0.00 0.00 0.00 66 1011.3
20260505071128 15 241 0.0 0.0 0.00 0.00 0.00 65 1011.2
20260505070618 15 228 0.0 0.0 0.00 0.00 0.00 65 1011.1
20260505070127 15 250 0.0 0.0 0.00 0.00 0.00 65 1011.2
20260505065616 15 305 0.0 0.0 0.00 0.00 0.00 65 1011.1
20260505065125 15 305 0.0 0.0 0.00 0.00 0.00 65 1011.2
20260505064650 15 305 0.0 0.0 0.00 0.00 0.00 64 1011.1
20260505064118 15 305 0.0 1.6 0.00 0.00 0.00 64 1011.2
20260505063646 15 308 0.0 3.2 0.00 0.00 0.00 63 1011.2
20260505063134 15 307 0.0 3.2 0.00 0.00 0.00 63 1011.3
20260505062622 15 227 0.0 3.2 0.00 0.00 0.00 63 1011.3
20260505062152 15 314 0.0 1.6 0.00 0.00 0.00 63 1011.3
20260505061638 15 276 0.0 1.6 0.00 0.00 0.00 62 1011.3
20260505061126 15 233 0.0 6.4 0.00 0.00 0.00 63 1011.2
20260505060616 16 259 0.0 6.4 0.00 0.00 0.00 62 1011.3
20260505060124 16 313 0.0 0.0 0.00 0.00 0.00 62 1011.3
20260505055613 16 313 0.0 0.0 0.00 0.00 0.00 61 1011.2
20260505055121 16 313 0.0 3.2 0.00 0.00 0.00 61 1011.4
20260505054630 16 313 0.0 3.2 0.00 0.00 0.00 61 1011.4
20260505054119 16 255 0.0 3.2 0.00 0.00 0.00 61 1011.4
20260505053629 16 218 0.0 3.2 0.00 0.00 0.00 60 1011.4
20260505053116 16 306 0.0 4.8 0.00 0.00 0.00 60 1011.4
20260505052625 16 306 1.6 4.8 0.00 0.00 0.00 59 1011.4
20260505052115 16 243 0.0 3.2 0.00 0.00 0.00 59 1011.4
20260505051620 16 209 0.0 4.8 0.00 0.00 0.00 59 1011.5
20260505051129 16 295 1.6 4.8 0.00 0.00 0.00 59 1011.6
20260505050618 16 294 0.0 4.8 0.00 0.00 0.00 58 1011.6
20260505050126 16 281 1.6 4.8 0.00 0.00 0.00 59 1011.5
20260505041642 16 241 0.0 3.2 0.00 0.00 0.00 59 1011.2
20260505041127 16 280 0.0 0.0 0.00 0.00 0.00 58 1011.2
20260505040618 16 292 0.0 1.6 0.00 0.00 0.00 58 1011.3
20260505040143 16 271 0.0 3.2 0.00 0.00 0.00 57 1011.3
20260505035648 16 270 0.0 3.2 0.00 0.00 0.00 57 1011.3
20260505035114 16 322 0.0 0.0 0.00 0.00 0.00 56 1011.2
20260505034623 16 322 0.0 0.0 0.00 0.00 0.00 57 1011.4
20260505034131 16 322 0.0 0.0 0.00 0.00 0.00 57 1011.3
20260505033620 16 322 0.0 0.0 0.00 0.00 0.00 56 1011.2
20260505033129 16 322 0.0 0.0 0.00 0.00 0.00 56 1011.3
20260505032617 16 322 0.0 0.0 0.00 0.00 0.00 55 1011.3
20260505032126 17 322 0.0 1.6 0.00 0.00 0.00 54 1011.2
20260505031615 17 322 0.0 1.6 0.00 0.00 0.00 54 1011.2
20260505031124 17 317 0.0 3.2 0.00 0.00 0.00 54 1011.2
20260505030632 17 320 1.6 3.2 0.00 0.00 0.00 54 1011.3
20260505030141 17 260 0.0 3.2 0.00 0.00 0.00 54 1011.2
20260505025629 17 95 0.0 1.6 0.00 0.00 0.00 54 1011.2
20260505025117 17 233 0.0 0.0 0.00 0.00 0.00 53 1011.2
20260505024646 17 253 0.0 0.0 0.00 0.00 0.00 53 1011.3
20260505024115 17 251 0.0 4.8 0.00 0.00 0.00 52 1011.3
20260505023619 17 247 0.0 4.8 0.00 0.00 0.00 52 1011.3
20260505023128 17 275 0.0 3.2 0.00 0.00 0.00 51 1011.3
20260505022638 17 165 0.0 3.2 0.00 0.00 0.00 51 1011.3
20260505022146 18 261 0.0 4.8 0.00 0.00 0.00 51 1011.2
20260505021614 18 255 1.6 4.8 0.00 0.00 0.00 50 1011.1
20260505021122 18 187 0.0 1.6 0.00 0.00 0.00 50 1011.2
20260505020631 18 277 0.0 3.2 0.00 0.00 0.00 49 1011.2
20260505020139 18 165 0.0 4.8 0.00 0.00 0.00 49 1011.3
20260505015628 18 165 1.6 4.8 0.00 0.00 0.00 49 1011.2
20260505015117 18 165 1.6 4.8 0.00 0.00 0.00 48 1011.1
20260505014625 18 165 0.0 6.4 0.00 0.00 0.00 48 1011.0
20260505014114 18 165 1.6 6.4 0.00 0.00 0.00 47 1011.0
20260505013623 18 165 1.6 8.0 0.00 0.00 0.00 47 1010.9
20260505013130 19 165 3.2 8.0 0.00 0.00 0.00 46 1010.8
20260505012619 19 165 1.6 8.0 0.00 0.00 0.00 46 1010.8
20260505012127 19 165 1.6 8.0 0.00 0.00 0.00 46 1010.8
20260505011617 19 165 1.6 9.7 0.00 0.00 0.00 46 1010.8
20260505011121 19 165 3.2 9.7 0.00 0.00 0.00 45 1010.8
20260505010629 20 165 1.6 8.0 0.00 0.00 0.00 45 1010.7
20260505010119 20 165 0.0 8.0 0.00 0.00 0.00 45 1010.7
20260505005626 20 165 1.6 9.7 0.00 0.00 0.00 44 1010.7
20260505005114 20 165 3.2 9.7 0.00 0.00 0.00 44 1010.7
20260505004623 20 165 0.0 8.0 0.00 0.00 0.00 43 1010.6
20260505004152 20 165 3.2 8.0 0.00 0.00 0.00 43 1010.6
20260505003620 20 165 1.6 9.7 0.00 0.00 0.00 42 1010.6
20260505003128 21 211 1.6 14.5 0.00 0.00 0.00 42 1010.5
20260505002617 21 165 0.0 14.5 0.00 0.00 0.00 41 1010.6
20260505002126 21 165 4.8 12.9 0.00 0.00 0.00 41 1010.6
20260505001615 21 233 4.8 12.9 0.00 0.00 0.00 41 1010.6
20260505001123 21 232 3.2 14.5 0.00 0.00 0.00 40 1010.6
20260505000631 21 227 4.8 16.1 0.00 0.00 0.00 40 1010.5
20260505000120 21 165 6.4 19.3 0.00 0.00 0.00 40 1010.5
20260504235628 21 249 6.4 19.3 0.00 0.00 0.00 40 1010.5
20260504235116 21 199 3.2 20.9 0.00 0.00 0.00 40 1010.4
20260504234644 21 263 6.4 20.9 0.00 0.00 0.00 40 1010.4
20260504234127 21 232 3.2 19.3 0.00 0.00 0.00 39 1010.4
20260504233616 21 229 3.2 16.1 0.00 0.00 0.00 38 1010.4
20260504233124 21 253 4.8 19.3 0.00 0.00 0.00 38 1010.4
20260504232613 22 272 8.0 19.3 0.00 0.00 0.00 38 1010.4
20260504232122 22 216 8.0 29.0 0.00 0.00 0.00 37 1010.5
20260504231630 22 22 6.4 29.0 0.00 0.00 0.00 37 1010.4
20260504231118 22 259 6.4 20.9 0.00 0.00 0.00 37 1010.4
20260504230627 22 206 6.4 20.9 0.00 0.00 0.00 36 1010.3
20260504230117 22 197 4.8 16.1 0.00 0.00 0.00 37 1010.4
20260504225624 22 242 4.8 16.1 0.00 0.00 0.00 36 1010.4
20260504225132 22 255 4.8 17.7 0.00 0.00 0.00 36 1010.4
20260504224640 22 249 6.4 20.9 0.00 0.00 0.00 36 1010.3
20260504224129 22 280 11.3 20.9 0.00 0.00 0.00 36 1010.3
20260504223638 22 251 3.2 14.5 0.00 0.00 0.00 35 1010.3
20260504223144 22 194 6.4 14.5 0.00 0.00 0.00 36 1010.3
20260504222633 22 249 4.8 17.7 0.00 0.00 0.00 35 1010.2
20260504222123 22 165 6.4 24.1 0.00 0.00 0.00 35 1010.2
20260504221627 22 261 8.0 24.1 0.00 0.00 0.00 34 1010.2
20260504221116 23 155 11.3 22.5 0.00 0.00 0.00 35 1010.2
20260504220625 23 10 6.4 24.1 0.00 0.00 0.00 34 1010.2
20260504220113 23 160 3.2 27.4 0.00 0.00 0.00 34 1010.2
20260504215620 23 241 6.4 27.4 0.00 0.00 0.00 34 1010.1
20260504215129 23 239 6.4 20.9 0.00 0.00 0.00 34 1010.1
20260504214617 23 186 6.4 19.3 0.00 0.00 0.00 33 1010.2
20260504214125 23 326 4.8 19.3 0.00 0.00 0.00 33 1010.2
20260504213635 23 205 8.0 22.5 0.00 0.00 0.00 34 1010.1
20260504213122 23 165 6.4 25.7 0.00 0.00 0.00 34 1010.2
20260504212631 23 245 11.3 24.1 0.00 0.00 0.00 34 1010.2
20260504212120 23 253 6.4 19.3 0.00 0.00 0.00 35 1010.3
20260504211628 23 279 6.4 20.9 0.00 0.00 0.00 35 1010.3
20260504211138 23 177 11.3 24.1 0.00 0.00 0.00 33 1010.4
20260504210626 23 251 6.4 24.1 0.00 0.00 0.00 33 1010.3
20260504210116 23 182 4.8 24.1 0.00 0.00 0.00 34 1010.3
20260504205623 23 56 3.2 22.5 0.00 0.00 0.00 33 1010.3
20260504205128 24 98 6.4 24.1 0.00 0.00 0.00 34 1010.3
20260504204618 24 193 4.8 24.1 0.00 0.00 0.00 35 1010.3
20260504204147 24 203 8.0 19.3 0.00 0.00 0.00 34 1010.3
20260504203615 24 236 6.4 24.1 0.00 0.00 0.00 33 1010.2
20260504203124 24 290 8.0 24.1 0.00 0.00 0.00 34 1010.4
20260504202613 25 213 6.4 19.3 0.00 0.00 0.00 35 1010.5
20260504202122 24 195 6.4 19.3 0.00 0.00 0.00 34 1010.7
20260504201632 24 149 3.2 19.3 0.00 0.00 0.00 35 1010.7
20260504201121 24 154 4.8 17.7 0.00 0.00 0.00 34 1010.7
20260504200630 25 249 3.2 17.7 0.00 0.00 0.00 33 1010.7
20260504200118 25 342 4.8 19.3 0.00 0.00 0.00 33 1010.7
20260504195628 24 305 4.8 19.3 0.00 0.00 0.00 34 1010.7
20260504195135 24 255 3.2 19.3 0.00 0.00 0.00 34 1011.0
20260504194644 24 308 9.7 20.9 0.00 0.00 0.00 33 1011.0
20260504194132 24 305 6.4 20.9 0.00 0.00 0.00 36 1011.1
20260504193621 24 218 8.0 17.7 0.00 0.00 0.00 34 1011.3
20260504193147 24 222 11.3 24.1 0.00 0.00 0.00 33 1011.5
20260504192614 24 286 8.0 25.7 0.00 0.00 0.00 34 1011.5
20260504192122 23 229 9.7 25.7 0.00 0.00 0.00 36 1011.6
20260504191651 23 320 4.8 14.5 0.00 0.00 0.00 36 1011.6
20260504191118 23 202 4.8 16.1 0.00 0.00 0.00 35 1011.8
20260504190627 23 81 1.6 16.1 0.00 0.00 0.00 37 1011.8
20260504190115 24 278 6.4 20.9 0.00 0.00 0.00 37 1012.0
20260504185644 23 226 6.4 20.9 0.00 0.00 0.00 36 1012.0
20260504185131 23 241 8.0 20.9 0.00 0.00 0.00 36 1012.0
20260504184621 23 51 9.7 17.7 0.00 0.00 0.00 36 1012.2
20260504184149 23 263 4.8 12.9 0.00 0.00 0.00 35 1012.1
20260504183637 23 284 4.8 19.3 0.00 0.00 0.00 36 1012.3
20260504183124 23 312 6.4 19.3 0.00 0.00 0.00 35 1012.4
20260504182649 23 232 6.4 19.3 0.00 0.00 0.00 36 1012.4
20260504182137 23 288 4.8 27.4 0.00 0.00 0.00 35 1012.4
20260504181624 23 21 8.0 27.4 0.00 0.00 0.00 34 1012.4
20260504181114 23 307 11.3 20.9 0.00 0.00 0.00 34 1012.5
20260504180622 23 191 8.0 17.7 0.00 0.00 0.00 33 1012.5
20260504180132 23 204 4.8 14.5 0.00 0.00 0.00 36 1012.6
20260504175619 23 293 3.2 17.7 0.00 0.00 0.00 36 1012.7
20260504175129 23 278 4.8 17.7 0.00 0.00 0.00 35 1012.7
20260504174618 22 317 4.8 12.9 0.00 0.00 0.00 34 1012.6
20260504174126 23 201 1.6 14.5 0.00 0.00 0.00 34 1012.6
20260504173615 23 293 4.8 14.5 0.00 0.00 0.00 35 1012.9
20260504173124 22 269 3.2 25.7 0.00 0.00 0.00 35 1012.8
20260504172632 22 269 11.3 25.7 0.00 0.00 0.00 36 1012.9
20260504172120 22 295 8.0 19.3 0.00 0.00 0.00 35 1012.9
20260504171648 23 284 6.4 17.7 0.00 0.00 0.00 31 1013.0
20260504171116 22 282 8.0 19.3 0.00 0.00 0.00 37 1013.0
20260504170626 22 181 6.4 16.1 0.00 0.00 0.00 34 1013.1
20260504170150 22 325 3.2 17.7 0.00 0.00 0.00 36 1013.1
20260504160153 22 293 8.0 17.7 0.00 0.00 0.00 33 1014.0
20260504151115 20 165 3.2 20.9 0.00 0.00 0.00 39 1014.5
20260504150623 20 46 6.4 20.9 0.00 0.00 0.00 35 1014.6
20260504150132 20 261 4.8 16.1 0.00 0.00 0.00 36 1014.7
20260504141130 18 325 1.6 14.5 0.00 0.00 0.00 40 1014.7
20260504140619 18 241 1.6 11.3 0.00 0.00 0.00 42 1014.9
20260504140147 18 230 4.8 11.3 0.00 0.00 0.00 44 1014.9
20260504130615 16 217 1.6 8.0 0.00 0.00 0.00 50 1015.2
20260504130124 15 293 1.6 8.0 0.00 0.00 0.00 49 1015.2
20260504120125 10 276 0.0 6.4 0.00 0.00 0.00 68 1015.5
20260504110618 8 304 0.0 3.2 0.00 0.00 0.00 73 1015.6
20260504110127 7 304 0.0 3.2 0.00 0.00 0.00 73 1015.6